When you browse on this site, cookies collect data to enhance your experience and personalize the content and advertising you see.
Visit our Privacy Policy to learn more. By continuing to use the site, you agree to this use of cookies and data.
  • En España
  • Lista de países
  • Para 7 días
  • Temperatura del agua
  • El tiempo en el mapa
  • Informadores
  • user-avatar
    Iniciar sesión

    Tiempo cada hora Worcester

    Hoy, 18 Octubre, Viernes

    Tiempo Temperatura Precipitaciones Viento Presión Humedad
    00:00 +10°C° 0 mm 3 mps 744 mmHg 95%
    01:00 +10°C° 1.4 mm 4 mps 743 mmHg 94%
    02:00 +10°C° 1.4 mm 4 mps 743 mmHg 93%
    03:00 +9°C° 1.4 mm 5 mps 742 mmHg 92%
    04:00 +8°C° 0.3 mm 5 mps 742 mmHg 92%
    05:00 +8°C° 0.3 mm 4 mps 742 mmHg 91%
    06:00 +8°C° 0 mm 3 mps 742 mmHg 92%
    07:00 +8°C° 0 mm 4 mps 743 mmHg 90%
    08:00 +9°C° 0 mm 5 mps 743 mmHg 87%
    09:00 +10°C° 0 mm 7 mps 743 mmHg 84%
    10:00 +10°C° 0.3 mm 7 mps 743 mmHg 81%
    11:00 +11°C° 0.3 mm 8 mps 743 mmHg 78%
    12:00 +12°C° 0.3 mm 8 mps 743 mmHg 75%
    13:00 +11°C° 0.5 mm 8 mps 743 mmHg 76%
    14:00 +11°C° 0.5 mm 8 mps 743 mmHg 77%
    15:00 +11°C° 0.5 mm 8 mps 743 mmHg 79%
    16:00 +10°C° 0.2 mm 7 mps 742 mmHg 80%
    17:00 +10°C° 0.2 mm 7 mps 742 mmHg 82%
    18:00 +9°C° 0.2 mm 6 mps 742 mmHg 84%
    19:00 +9°C° 0.1 mm 7 mps 742 mmHg 85%
    20:00 +9°C° 0.1 mm 7 mps 742 mmHg 86%
    21:00 +9°C° 0.1 mm 7 mps 742 mmHg 87%
    22:00 +9°C° 0 mm 6 mps 742 mmHg 88%
    23:00 +8°C° 0 mm 6 mps 742 mmHg 89%

    Mañana, 19 Octubre, Sábado

    Tiempo Temperatura Precipitaciones Viento Presión Humedad
    00:00 +8°C° 0 mm 6 mps 743 mmHg 90%
    01:00 +8°C° 0 mm 5 mps 743 mmHg 91%
    02:00 +8°C° 0 mm 5 mps 743 mmHg 92%
    03:00 +7°C° 0 mm 4 mps 743 mmHg 93%
    04:00 +7°C° 0 mm 4 mps 743 mmHg 93%
    05:00 +7°C° 0 mm 4 mps 743 mmHg 94%
    06:00 +7°C° 0 mm 3 mps 743 mmHg 94%
    07:00 +7°C° 0 mm 4 mps 744 mmHg 91%
    08:00 +8°C° 0 mm 4 mps 744 mmHg 89%
    09:00 +10°C° 0 mm 4 mps 745 mmHg 86%
    10:00 +11°C° 0 mm 4 mps 745 mmHg 82%
    11:00 +11°C° 0 mm 4 mps 745 mmHg 77%
    12:00 +12°C° 0 mm 4 mps 745 mmHg 73%
    13:00 +12°C° 0.2 mm 4 mps 746 mmHg 73%
    14:00 +13°C° 0.2 mm 4 mps 746 mmHg 73%
    15:00 +13°C° 0.2 mm 4 mps 746 mmHg 74%
    16:00 +11°C° 0.1 mm 4 mps 747 mmHg 79%
    17:00 +10°C° 0.1 mm 4 mps 747 mmHg 84%
    18:00 +8°C° 0.1 mm 3 mps 747 mmHg 89%
    19:00 +8°C° 0 mm 3 mps 748 mmHg 90%
    20:00 +8°C° 0 mm 3 mps 748 mmHg 91%
    21:00 +8°C° 0 mm 3 mps 749 mmHg 92%
    22:00 +7°C° 0 mm 3 mps 749 mmHg 92%
    23:00 +7°C° 0 mm 3 mps 750 mmHg 93%

    Pasado mañana, 20 Octubre, Domingo

    Tiempo Temperatura Precipitaciones Viento Presión Humedad
    00:00 +7°C° 0 mm 3 mps 750 mmHg 93%
    01:00 +7°C° 0 mm 3 mps 750 mmHg 93%
    02:00 +7°C° 0 mm 2 mps 750 mmHg 93%
    03:00 +7°C° 0 mm 2 mps 751 mmHg 94%
    04:00 +7°C° 0 mm 3 mps 751 mmHg 93%
    05:00 +7°C° 0 mm 3 mps 751 mmHg 92%
    06:00 +7°C° 0 mm 3 mps 752 mmHg 92%
    07:00 +7°C° 0 mm 4 mps 752 mmHg 88%
    08:00 +7°C° 0 mm 5 mps 753 mmHg 84%
    09:00 +8°C° 0 mm 6 mps 753 mmHg 81%
    10:00 +8°C° 0 mm 6 mps 754 mmHg 78%
    11:00 +9°C° 0 mm 6 mps 754 mmHg 75%
    12:00 +9°C° 0 mm 6 mps 755 mmHg 72%
    13:00 +9°C° 0 mm 6 mps 755 mmHg 72%
    14:00 +9°C° 0 mm 6 mps 755 mmHg 72%
    15:00 +9°C° 0 mm 5 mps 755 mmHg 72%
    16:00 +8°C° 0 mm 5 mps 755 mmHg 72%
    17:00 +8°C° 0 mm 5 mps 755 mmHg 73%
    18:00 +7°C° 0 mm 4 mps 756 mmHg 74%
    19:00 +7°C° 0 mm 5 mps 756 mmHg 75%
    20:00 +7°C° 0 mm 5 mps 757 mmHg 76%
    21:00 +6°C° 0 mm 5 mps 757 mmHg 78%
    22:00 +6°C° 0 mm 5 mps 757 mmHg 79%
    23:00 +7°C° 0 mm 5 mps 757 mmHg 80%

    21 Octubre, Lunes

    Tiempo Temperatura Precipitaciones Viento Presión Humedad
    00:00 +7°C° 0 mm 5 mps 757 mmHg 81%
    01:00 +7°C° 0.1 mm 6 mps 757 mmHg 82%
    02:00 +7°C° 0.1 mm 6 mps 757 mmHg 84%
    03:00 +8°C° 0.1 mm 6 mps 758 mmHg 85%
    04:00 +7°C° 0 mm 6 mps 758 mmHg 86%
    05:00 +7°C° 0 mm 5 mps 758 mmHg 86%
    06:00 +6°C° 0 mm 5 mps 759 mmHg 87%
    07:00 +7°C° 0 mm 5 mps 759 mmHg 86%
    08:00 +7°C° 0 mm 5 mps 760 mmHg 85%
    09:00 +7°C° 0 mm 5 mps 760 mmHg 84%
    10:00 +8°C° 0 mm 5 mps 761 mmHg 82%
    11:00 +8°C° 0 mm 5 mps 761 mmHg 81%
    12:00 +10°C° 0 mm 4 mps 762 mmHg 79%
    13:00 +10°C° 0 mm 4 mps 762 mmHg 79%
    14:00 +10°C° 0 mm 4 mps 762 mmHg 78%
    15:00 +11°C° 0 mm 4 mps 762 mmHg 78%
    16:00 +10°C° 0 mm 3 mps 762 mmHg 80%
    17:00 +9°C° 0 mm 3 mps 763 mmHg 82%
    18:00 +9°C° 0 mm 2 mps 763 mmHg 84%
    19:00 +8°C° 0 mm 2 mps 764 mmHg 86%
    20:00 +7°C° 0 mm 2 mps 764 mmHg 88%
    21:00 +6°C° 0 mm 2 mps 764 mmHg 90%
    22:00 +7°C° 0 mm 1 mps 764 mmHg 91%
    23:00 +7°C° 0 mm 1 mps 764 mmHg 91%

    22 Octubre, Martes

    Tiempo Temperatura Precipitaciones Viento Presión Humedad
    00:00 +6°C° 0 mm 1 mps 764 mmHg 92%
    01:00 +5°C° 0 mm 0 mps 764 mmHg 92%
    02:00 +5°C° 0 mm 0 mps 764 mmHg 92%
    03:00 +4°C° 0 mm 0 mps 764 mmHg 92%
    04:00 +4°C° 0 mm 0 mps 764 mmHg 92%
    05:00 +4°C° 0 mm 0 mps 764 mmHg 93%
    06:00 +4°C° 0 mm 0 mps 764 mmHg 93%
    07:00 +5°C° 0 mm 0 mps 764 mmHg 90%
    08:00 +7°C° 0 mm 1 mps 764 mmHg 87%
    09:00 +8°C° 0 mm 1 mps 764 mmHg 84%
    10:00 +10°C° 0 mm 1 mps 764 mmHg 79%
    11:00 +11°C° 0 mm 1 mps 764 mmHg 75%
    12:00 +13°C° 0 mm 2 mps 764 mmHg 70%
    13:00 +13°C° 0 mm 2 mps 763 mmHg 69%
    14:00 +13°C° 0 mm 2 mps 763 mmHg 69%
    15:00 +13°C° 0 mm 2 mps 762 mmHg 69%
    16:00 +12°C° 0 mm 2 mps 762 mmHg 74%
    17:00 +10°C° 0 mm 2 mps 762 mmHg 79%
    18:00 +9°C° 0 mm 1 mps 762 mmHg 85%
    19:00 +9°C° 0 mm 1 mps 762 mmHg 85%
    20:00 +9°C° 0 mm 1 mps 762 mmHg 86%
    21:00 +9°C° 0 mm 1 mps 762 mmHg 86%
    22:00 +9°C° 0 mm 1 mps 761 mmHg 87%
    23:00 +9°C° 0 mm 1 mps 761 mmHg 88%

    23 Octubre, Miércoles

    Tiempo Temperatura Precipitaciones Viento Presión Humedad
    00:00 +10°C° 0 mm 1 mps 761 mmHg 89%
    01:00 +9°C° 0 mm 1 mps 760 mmHg 91%
    02:00 +9°C° 0 mm 1 mps 760 mmHg 93%
    03:00 +8°C° 0 mm 1 mps 759 mmHg 94%
    04:00 +8°C° 0 mm 1 mps 759 mmHg 95%
    05:00 +8°C° 0 mm 1 mps 759 mmHg 95%
    06:00 +8°C° 0 mm 1 mps 759 mmHg 96%
    07:00 +9°C° 0 mm 1 mps 758 mmHg 94%
    08:00 +10°C° 0 mm 1 mps 758 mmHg 91%
    09:00 +9°C° 0 mm 2 mps 758 mmHg 89%
    10:00 +12°C° 0 mm 2 mps 757 mmHg 85%
    11:00 +12°C° 0 mm 3 mps 757 mmHg 80%
    12:00 +13°C° 0 mm 3 mps 757 mmHg 76%
    13:00 +13°C° 0 mm 3 mps 756 mmHg 75%
    14:00 +13°C° 0 mm 3 mps 756 mmHg 75%
    15:00 +13°C° 0 mm 3 mps 756 mmHg 74%
    16:00 +12°C° 0 mm 3 mps 755 mmHg 77%
    17:00 +12°C° 0 mm 2 mps 755 mmHg 81%
    18:00 +10°C° 0 mm 2 mps 755 mmHg 84%
    19:00 +9°C° 0 mm 2 mps 755 mmHg 87%
    20:00 +9°C° 0 mm 2 mps 756 mmHg 89%
    21:00 +8°C° 0 mm 3 mps 756 mmHg 91%
    22:00 +8°C° 0 mm 3 mps 755 mmHg 92%
    23:00 +8°C° 0 mm 3 mps 755 mmHg 92%
    Mostrar más